User: anonymous   Login
Location: Falniów
(50.3639°N, 19.9642°E)
Time: 05:14:05
(UTC+00:00)
Language:

Cosmos 304 Rocket - Orbit

View from above orbital plane
View from above orbital plane
View from above satellite
View from above satellite

Ground track
Ground track

The orbit is defined by the following mean orbital elements,

1 04139U          26071.50187219 +.00000000 +00000-0 +14053-3 0 00005
2 04139  74.0292  99.6181 0003554 100.3451 259.8119 14.66479703    00
Epoch (UTC): 12 March 2026 12:02:41
Eccentricity: 0.0003554
inclination: 74.0292°
perigee height: 670 km
apogee height: 675 km
right ascension of ascending node: 99.6181°
argument of perigee: 100.3451°
revolutions per day: 14.66479703
mean anomaly at epoch: 259.8119°

The dashed part of the orbit path shows where the satellite is in the earth's shadow,  

DLR